Location: Praha
(50.0830°N, 14.4670°E)
Time: 09:47:27
(UTC+01:00)

ISS - Pass Details

Date: 24 January 2023
Orbit: 412 x 423 km, 51.6° (Epoch: 06 February)

Event Time Altitude Azimuth Distance (km) Brightness Sun altitude
Rises 18:23:41 0° 266° (W) 2,379 1.9 -16.1°
Reaches altitude 10° 18:25:48 10° 269° (W) 1,515 0.4 -16.4°
Maximum altitude 18:29:11 69° 352° (N) 460 -3.7 -16.9°
Enters shadow 18:30:02 46° 59° (ENE) 583 -3.5 -17.1°
